Location: Fort Hill
(40.8793°N, 73.4065°W)
Time: 03:13:17
(UTC+00:00)

Daily predictions for brighter satellites

Satellite Brightness Start Highest point End
(mag) Time Altitude Azimuth Time Altitude Azimuth Time Altitude Azimuth
USA 81 4.4 00:04:08 10° S 00:08:28 58° SW 00:08:28 58° SW
Cosmos 2266 Rocket 4.3 00:03:17 10° SSW 00:09:39 67° W 00:13:31 25° N
CZ-4C R/B 2.7 00:13:02 10° SW 00:17:04 53° W 00:17:04 53° W
NOSS 3-1 (C) 4.2 00:40:31 10° NW 00:47:58 72° WSW 00:47:58 72° WSW
USA 229 DEB 4.5 00:51:22 10° NW 00:57:16 52° W 00:57:16 52° W
USA 229 4.5 00:51:27 10° NW 00:57:18 52° W 00:57:18 52° W
Cosmos 2369 Rocket 4.5 01:09:57 10° NW 01:13:23 19° W 01:13:23 19° W
Cosmos 2263 Rocket 3.8 09:03:08 26° NE 09:03:08 26° NE 09:05:27 10° NNE
USA 234 3.5 09:01:15 10° NE 09:07:45 64° SE 09:08:18 61° SSE
CZ-4C R/B 3.9 09:32:22 33° SSW 09:32:22 33° SSW 09:37:39 10° S
Cosmos 2026 Rocket 4.4 09:29:28 11° N 09:35:25 61° E 09:41:38 10° SSE
BREEZE-M DEB (TANK) 4.1 09:42:40 54° NW 09:43:23 57° NNW 09:47:23 10° NE
Cosmos 1943 3.1 09:53:19 63° WSW 09:53:19 63° WSW 09:58:50 10° S
FALCON 9 R/B 3.6 09:53:41 36° WSW 09:57:00 62° S 10:20:29 10° ESE
Cosmos 1634 Rocket 3.8 09:52:33 10° SSW 09:58:45 77° W 10:04:57 10° N
Timation 1 Rocket 4.4 09:59:20 53° WNW 09:59:20 53° WNW 10:05:08 10° NNE
Meteor 1-18 Rocket 4.1 09:57:36 27° N 10:00:46 86° W 10:06:23 10° S
USA 238 DEB 4.5 09:56:30 10° S 10:02:51 50° ESE 10:09:24 10° NE
Cosmos 1110 Rocket 4.3 10:00:36 10° S 10:05:43 66° ESE 10:10:51 10° NNE
Cosmos 332 Rocket 4.5 10:04:45 10° S 10:09:31 56° ESE 10:14:20 10° NNE
Cosmos 1627 Rocket 4.4 10:06:35 12° NNW 10:12:19 65° W 10:18:34 10° S
COSMO-SKYMED 1 2.4 10:09:53 10° SSE 10:14:12 86° WSW 10:16:16 31° NNW
Helios 1A Rocket 3.9 10:15:27 10° NNE 10:19:21 46° E 10:23:13 10° S
Cosmos 44 3.3 10:20:19 47° WNW 10:20:51 49° NW 10:25:16 10° NNE
Orbus 7S? 3.6 10:23:23 34° NNE 10:23:23 34° NNE 10:24:56 10° NE
PAYLOAD B 4.3 10:17:01 10° NNE 10:22:34 80° ESE 10:28:07 10° SSW
Cosmos 1733 Rocket 3.4 10:21:32 10° S 10:25:47 65° E 10:30:04 10° NNE
Cosmos 1092 Rocket 4.4 10:23:52 30° NW 10:25:47 37° W 10:31:20 10° SSW
Cosmos 1655 Rocket 4.1 10:22:02 10° N 10:28:16 76° E 10:34:30 10° SSE
Cosmos 371 Rocket 3.2 10:24:37 10° SSW 10:29:26 74° WNW 10:34:20 10° NNE
Cosmos 2221 Rocket 3.5 10:28:58 19° NNW 10:32:06 66° W 10:36:29 10° S
GEOS 3 Rocket 3.5 10:28:09 10° SE 10:33:15 90° SW 10:36:50 20° NW
ALOS 2.1 10:28:52 10° N 10:33:32 71° WNW 10:38:11 10° SSW
MOS 1-B 4.3 10:31:05 10° N 10:36:48 63° WNW 10:42:28 10° SSW
Cosmos 1741 Rocket 4.4 10:37:37 26° NW 10:40:03 42° WSW 10:44:55 10° S
Meteor 2-4 Rocket 3.5 10:34:39 10° N 10:40:07 84° W 10:45:28 10° S
Okean O Rocket 1.5 10:38:52 10° N 10:43:17 81° WNW 10:47:42 10° SSW
PSLV R/B 4.3 10:44:03 20° SSW 10:44:03 20° SSW 10:45:55 10° SSE
Cosmos 2263 Rocket 3.5 10:44:54 19° NW 10:44:54 19° NW 10:48:21 10° N
Cosmos 1666 4.3 10:42:36 10° SSE 10:46:07 36° E 10:49:38 10° NNE
USA 234 3.6 10:44:28 10° NE 10:50:33 43° NNW 10:55:41 15° W
ATLAS 3B R/B 4.3 10:46:25 10° S 10:52:31 37° ESE 10:58:32 10° NE
NOSS 3-2 (C) 3.9 10:48:05 10° SSW 10:53:39 61° ESE 10:59:53 10° NE
BREEZE-M DEB (TANK) 1.2 10:54:44 36° WNW 10:55:28 81° SSW 10:58:47 10° SE
Cosmos 1674 Rocket 3.5 10:53:40 10° N 10:58:02 89° E 11:02:20 10° S
DMSP B5D1-3 4.5 10:53:01 10° S 10:58:09 73° WSW 11:03:20 10° NNW
Cosmos 1302 Rocket 4.0 10:55:22 10° SSW 11:00:39 85° WNW 11:06:00 10° NNE
FENGYUN 3A 3.9 10:56:27 10° N 11:01:33 45° WNW 11:06:37 10° SW
Cosmos 405 2.9 11:01:18 10° NNW 11:04:48 61° W 11:08:15 10° S
Cosmos 2266 Rocket 3.9 10:59:10 10° N 11:05:23 83° W 11:11:27 10° S
SJ-7 4.3 11:01:58 10° N 11:05:55 61° WNW 11:09:49 10° SSW
ATLAS CENTAUR R/B 2.3 11:04:42 10° NNW 11:08:42 43° NE 11:12:23 10° SE
CZ-4 R/B 4.4 11:10:42 10° NE 11:13:23 17° E 11:16:05 10° SE
NOAA 6 4.3 11:08:43 10° N 11:13:35 46° WNW 11:18:27 10° SW
Cosmos 44 Rocket 3.2 11:09:06 10° SW 11:13:59 78° WNW 11:18:49 10° NNE
Cosmos 1378 Rocket 3.5 11:10:23 10° N 11:14:49 83° W 11:19:16 10° S
Cosmos 1844 Rocket 2.9 11:09:43 10° SW 11:15:04 46° WNW 11:20:27 10° NNE
GPS 2-04 Rocket1 4.0 11:16:21 10° WSW 11:19:59 37° S 11:23:47 10° ESE
H-2A R/B 2.6 11:17:56 10° N 11:21:42 79° WNW 11:25:30 10° SSW
Cosmos 1844 3.9 11:16:57 10° SW 11:22:36 52° WNW 11:28:15 10° NNE
Cosmos 1536 3.1 11:19:04 10° SSW 11:22:58 46° W 11:26:54 10° N
Cosmos 1743 4.1 11:19:26 10° SSE 11:23:01 42° E 11:26:38 10° NNE
Cosmos 304 Rocket 4.0 11:20:24 10° SW 11:25:01 48° WNW 11:29:40 10° N
COSMOS 2406 3.8 11:19:56 10° NNW 11:25:34 59° ENE 11:31:08 10° SE
CZ-4B R/B 3.7 11:21:27 10° N 11:26:40 40° WNW 11:31:53 10° SW
CZ-2C R/B 4.3 11:23:33 10° SSE 11:28:13 64° ENE 11:32:58 10° N
EP 3 3.7 11:27:11 10° SSW 11:29:22 80° SE 11:31:26 10° NE
IRS-1C Rocket 4.1 11:25:16 10° NNE 11:30:32 80° WNW 11:35:47 10° SSW
Cosmos 1992 Rocket 4.2 11:32:39 10° SSW 11:37:49 78° ESE 11:43:03 10° NNE
AQUARIUS 4.2 11:37:00 10° N 11:41:26 59° WNW 11:45:51 10° SSW
NOSS 3-2 (A) 3.8 11:36:19 10° WSW 11:41:48 43° NW 11:47:59 10° NNE
